Simultaneous Nadir Overpasses (SNOs) Predictions

Prediction of SNOs between LANDSAT-8 and METOP-A Satellite Orbit:

Table of predicted SNOs for the next 14.0 days since TLE Epoch: 7/20/2019
Index Date (LANDSAT-8) Time (LANDSAT-8) Lat,Lon (LANDSAT-8) SZA (LANDSAT-8 ) Date (METOP-A) Time (METOP-A) Lat,Lon (METOP-A) SZA (METOP-A ) Distance(km) Time Diff (sec)
1 07/20/2019 12:58:39 -81.46,-148.31 116.61 07/20/2019 12:57:27 -81.47,-148.19 116.62 2.25 72
2 07/20/2019 13:48:05 81.47, 19.47 63.42 07/20/2019 13:48:07 81.47, 19.55 63.43 1.34 2
3 07/20/2019 14:37:17 -81.68,-166.95 115.78 07/20/2019 14:38:21 -81.31,-162.62 115.42 82.01 64
4 07/23/2019 08:32:53 -81.48, -81.59 116.03 07/23/2019 08:31:49 -81.47, -81.56 116.06 0.69 64
5 07/23/2019 09:22:20 81.46, 85.77 63.95 07/23/2019 09:22:30 81.47, 85.74 63.95 1.06 10
6 07/26/2019 04:07:09 -81.47, -15.25 115.45 07/26/2019 04:06:13 -81.47, -15.34 115.49 1.41 56
7 07/26/2019 04:56:35 81.48, 152.48 64.57 07/26/2019 04:56:53 81.47, 152.31 64.56 2.70 18
8 07/28/2019 23:41:25 -81.47, 51.08 114.83 07/28/2019 23:40:36 -81.47, 51.26 114.83 3.12 49
9 07/29/2019 00:30:51 81.47,-141.22 65.19 07/29/2019 00:31:16 81.47,-141.12 65.21 1.56 25
10 07/31/2019 19:15:39 -81.48, 117.80 114.11 07/31/2019 19:14:58 -81.47, 117.85 114.13 1.23 41




NCC Satellite Simultaneous Nadir Overpasses (SNOs) Prediction Service
